Regional Weather Roundup
Issued by NWS

Home | Current Version | Previous Version | Text Only | Print | Product List | Glossary Off
Versions: 1 2 3 4 5 6 7 8 9 10 11 12 13 14 15 16 17 18 19 20 21 22 23 24 25 26 27 28 29 30 31 32 33 34 35 36 37 38 39 40 41 42 43 44 45 46 47 48 49 50

000
ASUS43 KMKX 221921
RWRWI

WISCONSIN REGIONAL WEATHER ROUNDUP
NATIONAL WEATHER SERVICE MILWAUKEE/SULLIVAN WI
200 PM CDT THU JUN 22 2017

NOTE: "FAIR" INDICATES FEW OR NO CLOUDS BELOW 12,000 FEET WITH NO
SIGNIFICANT WEATHER AND/OR OBSTRUCTIONS TO VISIBILITY.

WIZ001-002-006>008-014>016-023>028-222000-
NORTHWEST WISCONSIN

CITY           SKY/WX    TMP DP  RH WIND       PRES   REMARKS
SUPERIOR ARPT  NOT AVBL
ASHLAND        CLOUDY    71  56  58 SW8       29.68F
HAYWARD        CLOUDY    67  58  72 CALM      29.71F
SIREN          PTSUNNY   67  60  76 CALM      29.70F
CUMBERLAND     RAIN      63  59  88 SE7       29.70F
RICE LAKE      LGT RAIN  64  62  92 CALM      29.72S
CHETEK         LGT RAIN  65  65  99 NW3       29.74R
LADYSMITH      CLOUDY    66  64  94 NW5       29.72R
EAU CLAIRE     CLOUDY    70  68  93 S5        29.70R
MENOMONIE      RAIN      68  67  99 CALM      29.71R
NEW RICHMOND   CLOUDY    65  63  91 SE5       29.69F
OSCEOLA        LGT RAIN  67  67 100 NW3       29.75F
$$

WIZ003>005-009-010-017-018-222000-
NORTH CENTRAL WISCONSIN

CITY           SKY/WX    TMP DP  RH WIND       PRES   REMARKS
MANITOWISH WTR CLOUDY    64  63  98 SW8       29.73F
ARBOR VITAE    LGT RAIN  64  62  93 SW6       29.71F
WOODRUFF       LGT RAIN  64  62  93 SW6       29.71F
RHINELANDER    LGT RAIN  64  63  96 SW6       29.76F FOG
EAGLE RIVER    RAIN      64  63  97 SW6       29.73F
LAND O LAKES   LGT RAIN  64  62  92 SW5       29.74F
PHILLIPS       LGT RAIN  63  63 100 CALM      29.69F
TOMAHAWK       NOT AVBL
MEDFORD        CLOUDY    64  62  94 CALM      29.71F
MERRILL        LGT RAIN  66  66 100 CALM      29.71F
$$

WIZ029-030-035-036-043>047-222000-
CENTRAL WISCONSIN

CITY           SKY/WX    TMP DP  RH WIND       PRES   REMARKS
WAUSAU         RAIN      65  65 100 VRB6      29.69F FOG
MOSINEE        RAIN      64  64 100 SW6       29.76F FOG
MARSHFIELD     LGT RAIN  65  63  93 NE5       29.75R FOG
STEVENS POINT  HVY RAIN  65  65 100 NW7       29.75F
WAUPACA        LGT RAIN  73  71  91 W6        29.74F
WAUTOMA        LGT RAIN  70  67  90 SW3       29.75F
WISC RAPIDS    RAIN      69  68  96 E6        29.73F FOG
CAMP DOUGLAS   PTSUNNY   70  68  94 W6        29.77R
$$

WIZ011>013-019>022-031-037>040-048>050-222000-
NORTHEAST WISCONSIN

CITY           SKY/WX    TMP DP  RH WIND       PRES   REMARKS
ANTIGO         HVY RAIN  64  63  97 NW12      29.80R
SHAWANO        LGT RAIN  71  69  91 W9G17     29.75R
OCONTO         CLOUDY    72  68  88 W6        29.72R
STURGEON BAY     N/A     75  68  78 SW10        N/A
GREEN BAY      LGT RAIN  76  71  85 SW12      29.73R
MANITOWOC      LGT RAIN  75  66  73 SW7       29.76R
APPLETON       PTSUNNY   73  64  73 SW13      29.76R
CLINTONVILLE   LGT RAIN  70  68  94 W8        29.75R
OSHKOSH        CLOUDY    74  66  76 W9G21     29.76R
$$

WIZ032>034-041-042-053>061-222000-
SOUTHWEST WISCONSIN

CITY           SKY/WX    TMP DP  RH WIND       PRES   REMARKS
LA CROSSE      CLOUDY    72  69  90 S8        29.73F
SPARTA         CLOUDY    67  66  96 S3        29.75F
VIROQUA        CLOUDY    68  65  90 W9        29.77R
BOSCOBEL       CLOUDY    75  69  81 E3        29.76S
PRAIRIE DU CHI CLOUDY    75  67  75 E3        29.73S
PLATTEVILLE    CLOUDY    79  71  75 SW9       29.76F HX  82
$$

WIZ056-057-062-063-064-067-068-222000-
SOUTH CENTRAL WISCONSIN

CITY           SKY/WX    TMP DP  RH WIND       PRES   REMARKS
REEDSBURG      CLOUDY    71  65  84 SW13G22   29.74F
BARABOO/DELLS  CLOUDY    71  65  83 SW6       29.79R
LONE ROCK      CLOUDY    74  66  76 N12       29.78R
MINERAL POINT  CLOUDY    79  70  73 S6        29.76R HX  81
MADISON        CLOUDY    74  67  78 N12       29.77R
MIDDLETON      CLOUDY    75  68  79 N5        29.78F
WATERTOWN      LGT RAIN  75  71  87 NW7G18    29.78R
MONROE         PTSUNNY   79  64  61 S14       29.77F HX  81
JANESVILLE     PTSUNNY   84  66  54 S15G21    29.77S HX  86
$$

WIZ051-052-058>065-066-070>072-222000-
SOUTHEAST WISCONSIN

CITY           SKY/WX    TMP DP  RH WIND       PRES   REMARKS
MILWAUKEE      CLOUDY    82  66  58 SW14      29.76S HX  84
WAUKESHA       MOSUNNY   77  64  65 SW9       29.79R
MILWAUKEE/TIMM SUNNY     81  63  54 SW14      29.77S HX  82
RACINE         CLOUDY    84  67  56 SW16G24   29.78F HX  86
KENOSHA        CLOUDY    87  69  54 SW15      29.77F HX  91
FOND DU LAC    LGT RAIN  73  66  78 W12       29.79R
SHEBOYGAN      LGT RAIN  75  68  78 SW7       29.76S
WEST BEND      LGT RAIN  72  68  88 NW3       29.79R
JUNEAU         CLOUDY    72  67  83 CALM      29.79F
$$

LSZ147-162-222000-
LAKE SUPERIOR

STATION/POSITION TIME  TEMP    WIND        PRES    WAVE
                       AIR SEA DIR/SP/G            HT/PER
                 (UTC) (F)     (DEG/KT/KT) (MB)    (FT/S)
W MID LAKE BUOY  1850   45 39  240/ 10/ 10 1004.6F   1
DEVILS ISLAND    1900   62     230/  8/ 11 1004.4F
SAXON HARBOR     1830   71     200/  3/  4 1005.1F
$$

LMZ867-665-643>646-222000-
LAKE MICHIGAN

STATION/POSITION TIME  TEMP    WIND        PRES    WAVE
                       AIR SEA DIR/SP/G            HT/PER
                 (UTC) (F)     (DEG/KT/KT) (MB)    (FT/S)
CHAMBERS ISLAND  1840   68     190/  5/ 12 1006.1R
N MID LAKE BUOY  1850   59 55  190/ 12/ 14 1006.0F   3/ 5
NORTHPORT PIER   1900   69      CALM  / 14 1006.1
KEWAUNEE LAKESHO 1854   55     180/  7/ 10 1006.6S
SHEBOYGAN LAKESH 1900   75     200/  5/  6 1007.3R
PORT WASHINGTON  1830   65      CALM  /  2 1008.8R
ATWATER BUOY     1809   75 56  200/  8/ 10 1007.9F
MILWAUKEE LAKESH 1900   81     240/ 17/ 20   N/A
S MID LAKE BUOY  1850   67 61  200/ 12/ 12 1008.9R   3/ 4
KENOSHA   LAKESH 1900   85     200/ 14/ 19 1007.8
$$

TC  - TEMPERATURE IN CELSIUS
VSB - VISIBILITY IN STATUTE MILES
WCI - WIND CHILL INDEX
HX  - HEAT INDEX




USA.gov is the U.S. government's official web portal to all federal, state and local government web resources and services.